User: anonymous   Login
Location: Unspecified
(0.0000°N, 0.0000°E)
Time: 20:47:35
(UTC+00:00)
Language:

IRIDIUM 167 - Orbit

View from above orbital plane
View from above orbital plane
View from above satellite
View from above satellite

Ground track
Ground track

The orbit data is extracted from the following two-line orbital elements,

1 43931U 19002K   24057.32804371  .00000077  00000-0  20341-4 0  9996
2 43931  86.4025 345.4260 0002276  86.2483 273.8973 14.34217682268293
Epoch (UTC): 26 February 2024 07:52:22
Eccentricity: 0.0002276
inclination: 86.4025°
perigee height: 776 km
apogee height: 779 km
right ascension of ascending node: 345.4260°
argument of perigee: 86.2483°
revolutions per day: 14.34217682
mean anomaly at epoch: 273.8973°
orbit number at epoch: 26829

The dashed part of the orbit path shows where the satellite is in the earth's shadow,  

DLR